Skip Page Navigation
NASA JPL Caltech
NASA Logo - Jet Propulsion Laboratory + View the NASA Portal
+ Center for Near-Earth Object Studies
JPL Home Earth Solar System Stars & Galaxies Technology
JPL Solar System Dynamics
BODIES ORBITS EPHEMERIDES TOOLS PHYSICAL DATA DISCOVERY FAQ SITE MAP
IMPORTANT: The SSD Announcement email list is now available. Major changes are coming in the near future, including possible hostname and/or URL changes. To be notified of such changes, subscribe to this email list.

Please visit this page for more details.


JPL Small-Body Database Browser
Search: [ help ]  
359267 (2009 FQ69)
Classification: Main-belt Asteroid          SPK-ID: 2359267
Ephemeris | Orbit Diagram | Orbital Elements | Mission Design | Physical Parameters | Discovery Circumstances ]

[ show orbit diagram ]
Orbital Elements at Epoch 2458600.5 (2019-Apr-27.0) TDB
Reference: JPL 11 (heliocentric ecliptic J2000)
 Element Value Uncertainty (1-sigma)   Units 
e .1691073267518935 7.2468e-08  
a 2.546607295796373 2.3677e-08 au
q 2.11595734371738 1.8727e-07 au
i 5.713485243430212 8.9583e-06 deg
node 136.1646404741022 0.00012244 deg
peri 352.4592724820716 0.00012964 deg
M 224.5574838247712 4.5287e-05 deg
tp 2459158.962360671156
(2020-Nov-05.46236067)
0.00018775 TDB
period 1484.367357599235
4.06
2.0701e-05
5.668e-08
d
yr
n .2425275644583371 3.3823e-09 deg/d
Q 2.977257247875365 2.7681e-08 au
  Orbit Determination Parameters
   # obs. used (total)      156  
   data-arc span      5844 days (16.00 yr)  
   first obs. used      2003-10-29  
   last obs. used      2019-10-29  
   planetary ephem.      DE431  
   SB-pert. ephem.      SB431-N16  
   condition code      0  
   norm. resid. RMS      .61974  
   source      ORB  
   producer      Otto Matic  
   solution date      2019-Nov-08 11:15:28  

Additional Information
 Earth MOID = 1.13143 au 
 Jupiter MOID = 2.07816 au 
 T_jup = 3.415 
[ show covariance matrix ]

Ephemeris | Orbit Diagram | Orbital Elements | Mission Design | Physical Parameters | Discovery Circumstances ]

Physical Parameter Table
Parameter Symbol Value Units Sigma Reference Notes
absolute magnitude H 17.0   n/a MPO260725  

359267 (2009 FQ69)          Discovered 2009-Mar-18 by Spacewatch at Kitt Peak
Reference: 20130327/Numbers.arcLast Updated: 2013-03-29
Ephemeris | Orbit Diagram | Orbital Elements | Mission Design | Physical Parameters | Discovery Circumstances ]
ABOUT SSD CREDITS/AWARDS PRIVACY/COPYRIGHT GLOSSARY LINKS
FirstGov
(server date/time)  
NASA Home Page
Site Manager:   Ryan S. Park
Webmaster  Alan B. Chamberlin